STARLINK-11575, 63308

Orbit data source: Space-Track

STARLINK-11575, 63308 is a payload satellite owned by SpaceX/Seattle (US) in LEO that was launched on Tue, 18 Mar 2025 UTC via an FALCON 9 launch vehicle from the Air Force Eastern Test Range (AFETR). Payload-class satellites include a variety of spacecraft equipped with specific instruments for various scientific and technological missions. These include communications satellites like Starlink; space stations such as the ISS; scientific satellites like the Hubble; Earth observation satellites from companies like Planet Labs, Umbra, and HawkEye 360; GPS; miniature CubeSats for education and research; and military/defense satellites.

Loading next visibility...
Identifier
63308, 2025-057B
Orbit
LEO
Country
Flag of USUS
Related business
Manufacturer
SpaceX/Seattle
Mission
Operational Commercial Communications
Bus & Motor
STARLINK V2MD, Unknown motor
Mass
960 kg wet, ~910 kg dry
Launch date (UTC)
2025-03-18 (1 year ago)
Launch vehicle
FALCON 9
Launch site
Air Force Eastern Test Range (AFETR)
Object type
Payload
Rocket body
Debris
Shape & HBR
Box + 2 Pan, 18.1 m
Radar Cross Section
36.964 m², Large (>1 m²)

Expand to show TLE details & history
Last TLE update: 9 hours ago

TLE from 9 hours ago
0 STARLINK-11575
1 63308U 25057B   26257.57331149  .00178659  00000-0  13654-2 0  9991
2 63308  43.0011 206.0461 0001560 266.9961  93.0729 15.70853035 86888
Epoch: 2026-09-14T13:45Z
TLE epoch observation values (Epoch: 2026-09-14T13:45:34.112Z)
Latitude
0.00003°
Longitude
6.10233°
Altitude
356.286 km
Speed
7.697 km/s
True Right ascension
13h 44m 11s
True Declination
0° 00' 00"
Sunlit
Object was in daylight at epoch
Visualization orbit readout
Latitude
Unknown
Longitude
Unknown
Altitude
Unknown
Speed
Unknown
Apparent Right ascension
Unknown
Apparent Declination
Unknown
Sunlit
N/A
Visualization observer readout
Local Sidereal Time
15:01:35
Azimuth
Unknown
Elevation
Unknown
Doppler factor
Unknown
Orbital elements
Apogee altitude
359.49 km
Perigee altitude
357.388 km
Semi-major axis
6,736.576 km
Eccentricity
0.00016
Inclination
43.0011°
RAAN
206.0461°
Arg. of periapsis
266.9961°
True anomaly
93.09075°
Mean anomaly
93.0729°
Eccentric anomaly
93.08183°
Mean motion
3.9254 °/min
Orbital period
91.71 mins
BSTAR
0.0013654
Loading maneuver chart data...
Computing Atmospheric mass density...
Loading historical data...
Loading historical data...
Loading historical data...
Loading historical data...
Loading historical data...
Loading historical data...
Loading historical data...

Documentation

Showing up to 5 results
|